ELEKTRO-L 2 (41105 NORAD) Tracking and Keplerian Element Data

This shows tracking and keplerian element data for the satellite.

Feedback or suggestion? Click here.




ElementValue
Catalog41105
NameELEKTRO-L 2
Epoch Orbit2488
Epoch Day269.7394951
Epoch Year2022
RAAN86.9243
Inclination3.236
Eccentricity0.0002666
Argument of Perigee120.8635
Mean Anonmoly49.4727
Mean Motion1.00273429
Decay Rate-1.1E-06
L11 41105U 15074A 22269.73949510 -.00000110 00000+0 00000+0 0 9998
L22 41105 3.2360 86.9243 0002666 120.8635 49.4727 1.00273429 24887

Live tracking and technical data element details for ELEKTRO-L 2 (NORAD 41105). ELEKTRO-L 2 can be tracked NOW for your location showing map with azimuth and elevation plus other details from your city location.

Track the satellite on the map from your city or location and see movement details for azimuth, elevation, latitude, longitude, range, height, and movement on the map or in text.







IsCatalogInMostPopularTable: catalog: 41105, numindb: 623
Update: records affected: 1



GetName: 41105 ELEKTRO-L 2

Hit Count: updated at: Fri, 30 Sep 2022 03:08:14 GMT